TimeEST,TemperatureF,Dew PointF,Humidity,Sea Level PressureIn,VisibilityMPH,Wind Direction,Wind SpeedMPH,Gust SpeedMPH,PrecipitationIn,Events,Conditions,WindDirDegrees,DateUTC
12:58 AM,33.4,24.6,70,30.04,10.0,West,8.1,-,N/A,,Clear,280,2014-01-13 05:58:00
1:58 AM,31.6,24.8,76,30.07,10.0,WSW,5.8,-,N/A,,Clear,240,2014-01-13 06:58:00
2:58 AM,26.4,25.5,96,30.08,10.0,South,5.8,-,N/A,,Clear,180,2014-01-13 07:58:00
3:58 AM,28.2,25.7,90,30.10,10.0,SSW,5.8,-,N/A,,Clear,200,2014-01-13 08:58:00
4:58 AM,26.8,24.6,92,30.11,10.0,Calm,Calm,-,N/A,,Clear,0,2014-01-13 09:58:00
5:58 AM,27.1,26.1,96,30.12,10.0,ESE,2.3,-,N/A,,Clear,110,2014-01-13 10:58:00
6:58 AM,28.9,26.6,91,30.12,10.0,SSE,3.5,-,N/A,,Clear,150,2014-01-13 11:58:00
7:58 AM,27.7,27.1,98,30.11,10.0,ESE,3.5,-,N/A,,Clear,120,2014-01-13 12:58:00
8:58 AM,33.4,29.1,84,30.13,10.0,South,9.2,-,N/A,,Clear,180,2014-01-13 13:58:00
9:58 AM,38.1,29.1,70,30.13,10.0,South,10.4,-,N/A,,Clear,180,2014-01-13 14:58:00
10:58 AM,40.5,29.5,65,30.11,10.0,South,10.4,-,N/A,,Clear,180,2014-01-13 15:58:00
11:58 AM,44.6,30.2,57,30.06,10.0,South,13.8,-,N/A,,Clear,180,2014-01-13 16:58:00
12:58 PM,45.0,30.4,57,30.05,10.0,South,15.0,-,N/A,,Clear,180,2014-01-13 17:58:00
1:58 PM,45.7,31.3,57,30.04,10.0,South,15.0,20.7,N/A,,Clear,180,2014-01-13 18:58:00
2:58 PM,46.8,31.5,55,30.02,10.0,South,17.3,21.9,N/A,,Clear,170,2014-01-13 19:58:00
3:58 PM,46.2,32.4,58,30.03,10.0,SSW,9.2,19.6,N/A,,Clear,200,2014-01-13 20:58:00
4:58 PM,43.2,32.9,67,30.01,10.0,South,6.9,-,N/A,,Clear,170,2014-01-13 21:58:00
5:58 PM,42.4,34.7,74,30.02,10.0,South,6.9,-,N/A,,Overcast,190,2014-01-13 22:58:00
6:58 PM,44.4,37.8,77,29.99,10.0,South,12.7,-,N/A,,Overcast,190,2014-01-13 23:58:00
7:58 PM,45.3,36.7,72,29.97,10.0,South,10.4,-,N/A,,Clear,190,2014-01-14 00:58:00
8:58 PM,45.0,37.0,74,29.95,10.0,South,10.4,-,N/A,,Scattered Clouds,180,2014-01-14 01:58:00
9:58 PM,43.7,37.6,79,29.94,10.0,South,9.2,-,N/A,,Scattered Clouds,190,2014-01-14 02:58:00
10:58 PM,43.5,37.9,81,29.93,10.0,SSW,5.8,-,N/A,,Mostly Cloudy,200,2014-01-14 03:58:00
11:58 PM,45.7,39.6,79,29.90,10.0,SSW,10.4,-,N/A,,Mostly Cloudy,200,2014-01-14 04:58:00